Lapse_Rate
6.1 6.1 6.1 6.3 6.3 6.4 6.4 6.3 6.1 6.0 5.9 5.6 5.5 5.3 5.2 5.0 4.9 4.9 5.1 5.5 5.6 5.6 5.2 4.8 4.6 4.4 4.2 3.8 3.6 4.0 3.7 4.9 4.9 4.8 4.9 5.2 5.4 5.7 5.5 5.5 5.8 5.8 6.1 6.3 6.0 5.9 5.9
6.1 5.8 6.0 6.1 6.2 6.2 6.3 6.3 6.3 6.0 6.0 5.8 5.7 5.4 5.3 4.9 4.6 4.7 4.5 4.9 5.6 5.5 5.1 4.6 4.3 4.1 4.1 3.7 4.4 3.6 3.8 4.2 4.7 4.9 5.0 5.0 5.2 5.6 5.3 5.6 5.9 6.0 6.3 6.3 6.2 5.8 5.9
6.5 6.1 5.8 5.9 6.1 6.1 6.1 6.2 6.3 6.1 6.1 5.8 5.9 5.7 5.2 5.0 4.6 4.6 4.4 4.8 5.1 5.0 4.8 4.4 4.1 3.8 3.5 4.7 4.0 4.3 4.1 4.6 4.6 4.8 5.0 5.3 4.9 5.0 5.3 5.8 6.0 6.1 6.3 6.3 6.1 6.1 6.1
6.3 6.3 6.2 6.0 5.9 6.1 6.1 6.1 6.3 6.1 6.1 6.0 5.9 5.8 5.4 5.2 4.8 4.6 4.3 4.8 5.1 4.9 4.6 4.2 3.9 3.5 3.3 4.6 4.0 4.9 4.8 4.7 5.0 5.4 5.4 5.4 5.0 5.4 5.3 5.6 6.1 6.2 6.2 6.0 6.0 6.2 6.3
6.3 6.3 6.2 6.1 6.0 5.9 6.1 6.1 6.1 6.1 6.2 6.1 5.9 5.8 5.6 5.3 4.7 4.6 4.4 4.7 4.7 4.6 4.3 4.0 4.0 3.6 3.6 5.3 5.0 5.0 4.9 5.2 5.0 5.0 5.3 5.3 5.2 5.1 5.9 6.0 6.2 6.1 6.1 6.0 6.3 6.5 6.4
6.1 6.2 6.3 6.4 6.3 6.1 5.9 6.1 6.1 6.0 6.0 5.9 5.9 5.9 5.7 5.4 4.8 4.7 4.6 4.9 4.7 4.3 4.1 4.2 4.1 3.7 4.5 5.5 5.8 5.6 5.5 5.5 5.3 5.1 5.3 5.5 5.8 5.3 5.7 5.9 6.2 5.9 5.9 6.8 6.5 6.9 6.5
5.8 6.0 6.3 6.4 6.3 6.3 6.0 5.9 6.2 5.9 5.9 5.8 5.9 5.9 5.8 5.6 5.0 5.0 4.7 4.7 5.0 4.7 4.1 4.5 4.5 5.0 5.0 5.6 5.9 6.1 5.9 5.9 5.6 5.1 5.3 5.5 6.0 6.0 6.2 6.1 6.0 6.3 6.7 7.1 7.0 7.1 7.0
5.4 5.8 6.0 6.5 6.5 6.4 6.2 6.0 6.0 6.0 5.8 5.7 5.8 5.8 5.8 5.6 5.0 5.0 4.9 4.6 5.3 5.0 4.3 4.3 4.2 4.8 4.9 5.4 5.7 6.1 6.2 6.1 5.5 5.6 6.0 6.6 6.6 6.4 7.1 6.5 6.2 6.3 6.8 7.5 7.6 7.0 6.6
5.3 5.6 5.8 6.2 6.6 6.6 6.6 6.1 5.9 6.1 5.7 5.6 5.7 5.7 5.7 5.5 5.1 4.9 4.4 4.8 5.1 4.8 4.4 4.2 4.6 4.8 5.3 5.4 5.8 5.8 6.2 6.5 5.9 6.2 6.9 7.2 7.4 7.6 6.7 6.4 6.3 6.3 6.5 7.5 7.3 6.8 6.4
5.5 5.4 5.7 6.1 6.5 6.6 6.6 6.5 6.1 6.2 5.8 5.6 5.6 5.6 5.4 5.4 5.0 4.7 4.8 4.8 5.0 5.1 4.7 4.1 5.3 5.0 5.6 5.7 5.7 6.0 6.1 6.5 6.4 6.8 7.0 7.0 7.2 7.3 6.8 6.1 6.4 6.4 6.8 7.3 7.2 6.8 7.0
6.4 6.2 5.7 5.9 6.7 6.6 6.9 6.6 6.3 6.3 6.0 5.6 5.5 5.5 5.3 5.2 5.0 4.9 4.6 5.0 4.7 5.1 5.3 4.9 4.7 5.1 5.2 5.7 5.8 6.1 6.5 6.7 6.7 6.8 6.9 7.1 7.1 6.9 6.5 6.0 6.1 6.1 6.0 7.0 6.7 7.0 6.4
6.1 6.3 6.0 6.0 6.2 6.7 6.8 6.3 6.4 6.3 5.9 5.6 5.4 5.5 5.1 5.0 4.8 4.5 4.3 4.4 4.6 4.6 5.1 5.0 5.0 5.3 5.5 5.7 6.1 6.3 6.7 6.9 6.7 6.9 6.8 6.5 6.6 6.6 5.8 6.3 6.0 6.4 6.7 6.4 6.4 6.7 6.8
6.0 6.5 6.0 5.8 5.7 5.9 6.7 6.1 6.1 6.1 5.6 5.5 5.1 5.0 4.9 4.6 4.6 4.3 4.1 4.2 4.5 4.5 4.9 5.0 5.3 5.8 5.8 6.1 6.2 6.4 6.5 6.6 6.7 6.7 6.1 6.0 6.0 6.4 6.3 6.1 6.0 5.7 6.1 6.3 6.6 6.5 7.3
6.3 6.4 6.3 5.9 6.0 5.9 6.1 5.8 5.6 5.8 5.3 5.2 5.1 4.8 4.8 4.6 4.3 4.1 4.1 4.2 4.2 4.9 5.1 5.4 5.7 6.1 6.2 6.3 6.3 6.8 6.9 6.9 6.8 6.7 6.0 5.9 5.8 5.9 6.4 6.0 5.4 5.8 5.8 6.9 7.2 7.2 7.7
5.8 5.6 6.4 5.9 6.1 6.0 5.6 5.6 5.7 5.6 5.4 5.1 5.0 4.8 4.8 4.9 4.2 3.9 3.9 4.1 4.4 4.9 5.2 5.7 5.8 6.1 6.6 6.6 6.9 6.7 6.7 6.7 6.6 6.3 6.4 5.6 5.7 5.9 5.9 5.7 5.7 5.8 6.1 7.1 7.6 7.6 8.3
5.3 5.5 6.4 6.0 6.0 6.2 5.7 5.6 5.6 5.6 5.2 5.2 5.2 5.1 5.1 4.9 4.6 3.8 3.7 4.2 4.4 4.8 5.4 5.7 5.8 6.5 7.0 6.8 7.1 6.8 6.2 6.4 6.2 5.9 5.7 5.3 5.3 5.8 6.1 6.0 5.9 5.7 6.6 6.8 7.2 7.5 7.9
4.8 5.9 6.2 6.1 6.2 6.0 5.8 5.4 5.6 5.6 5.2 5.4 5.2 5.0 5.3 4.8 4.6 4.1 4.2 4.4 4.3 4.8 5.4 5.6 6.1 6.2 7.2 7.2 6.9 6.5 6.5 6.7 6.7 6.1 5.7 5.6 5.4 5.3 5.7 5.8 5.4 5.6 5.9 6.6 7.4 7.4 8.7
4.9 5.0 5.6 6.1 6.0 6.3 6.0 5.6 5.6 5.5 5.3 5.4 5.2 5.0 5.1 4.5 4.3 4.6 4.8 4.7 4.7 5.0 5.4 5.3 6.0 6.1 7.3 7.0 6.3 6.3 6.6 6.8 6.6 5.7 5.3 5.5 5.4 5.0 5.5 5.7 5.9 5.9 6.3 6.7 7.5 7.2 7.3
5.4 5.1 5.3 5.9 6.0 6.1 6.3 5.9 5.6 5.5 5.5 5.4 5.2 5.1 4.5 4.6 4.7 4.8 4.9 4.8 4.9 5.1 5.0 5.2 5.5 5.9 6.4 6.8 6.3 5.9 5.9 6.1 5.9 5.8 5.9 5.9 5.6 5.5 5.6 5.5 6.0 6.1 6.2 6.4 6.9 7.0 7.5
5.4 5.1 5.6 5.7 5.9 6.0 6.4 6.1 5.6 5.5 5.5 5.5 5.2 4.7 4.7 4.9 4.8 4.7 4.6 4.7 5.0 5.3 5.3 5.6 5.3 5.5 5.9 6.2 6.4 5.9 5.4 5.9 5.9 6.0 6.0 5.6 5.9 6.7 7.7 7.0 6.0 5.4 6.0 6.4 6.5 6.9 7.2
4.7 4.8 5.8 5.7 6.0 6.4 6.8 6.3 5.7 5.6 5.6 5.5 5.1 4.9 4.9 4.8 4.9 5.1 4.9 4.8 5.2 5.3 5.3 5.3 5.7 5.6 5.5 5.9 6.1 5.9 5.5 5.8 5.7 6.0 5.4 5.5 6.6 7.0 7.1 7.0 6.7 6.6 6.5 6.5 6.5 6.8 7.1
4.5 4.5 5.1 5.5 6.3 6.4 6.8 6.5 5.9 5.7 5.6 5.4 5.2 4.9 4.8 5.2 5.2 5.2 5.1 4.9 4.8 5.1 5.2 5.5 5.3 5.8 5.8 6.1 6.3 6.1 5.6 5.7 5.5 5.4 5.5 5.3 6.0 6.5 6.7 6.7 7.0 7.1 6.9 6.7 6.5 6.6 6.6
4.2 4.3 4.5 5.4 6.4 6.3 6.3 5.9 5.9 5.6 5.5 5.4 5.4 5.2 5.0 5.1 5.1 5.1 5.3 5.1 5.3 5.2 5.2 5.4 5.6 5.8 6.0 6.2 5.9 6.2 6.5 6.1 6.1 5.9 5.8 5.1 5.5 6.5 7.0 6.4 6.5 6.6 6.6 6.6 6.4 6.2 6.4
4.1 4.2 4.6 5.7 6.2 6.8 6.4 6.3 6.1 5.8 5.6 5.6 5.3 5.2 5.0 5.5 4.9 5.0 5.3 5.3 5.2 5.2 5.1 5.5 5.5 5.8 6.1 6.1 5.7 5.7 5.9 5.9 5.9 6.0 6.2 5.7 6.0 6.2 6.0 6.4 6.6 7.0 7.1 6.7 6.5 6.5 6.2
3.9 3.8 4.7 5.7 6.2 6.4 6.6 6.1 6.3 6.0 5.8 5.7 5.4 5.2 5.4 5.4 5.2 5.2 5.1 5.2 5.2 5.3 5.0 5.4 5.7 5.8 5.9 6.0 6.1 5.7 5.7 5.7 5.7 5.9 5.7 5.6 5.7 6.0 6.3 6.3 6.8 7.2 7.2 7.1 6.5 7.2 6.8
3.7 3.8 5.0 5.6 5.9 6.2 6.3 6.2 6.0 6.2 5.9 5.8 5.5 5.4 5.3 5.4 5.5 5.8 5.4 5.3 5.3 5.3 5.2 5.4 5.7 5.7 5.8 5.9 5.9 6.0 6.0 5.9 5.7 5.7 5.8 5.6 5.8 6.0 5.9 6.7 7.1 7.4 7.2 7.2 6.8 6.9 7.3
3.9 3.6 4.7 5.5 6.2 6.3 6.0 6.2 5.9 5.9 6.0 5.9 5.7 5.5 5.5 5.5 5.8 5.9 5.8 5.6 5.4 5.4 5.4 5.4 5.7 5.7 5.6 6.0 6.0 6.4 6.3 6.1 5.9 5.7 5.4 5.4 5.6 5.7 5.9 5.7 6.8 7.2 7.5 7.2 6.7 7.5 7.7
3.4 3.7 5.3 5.8 6.1 6.2 6.2 6.1 6.1 6.0 6.1 5.9 5.9 5.5 5.5 5.7 5.8 6.0 5.9 5.6 5.5 5.5 5.5 5.5 5.4 5.6 5.7 6.0 6.0 6.3 6.3 6.5 6.3 6.1 5.8 5.7 5.9 5.5 5.6 5.5 6.1 7.5 7.4 7.3 7.5 7.4 7.6
3.5 3.8 5.0 5.5 6.3 6.3 6.1 5.8 6.0 6.1 6.1 5.9 5.8 5.8 5.6 5.8 6.1 6.1 6.2 5.8 5.6 5.5 5.5 5.5 5.7 5.8 5.7 5.9 6.1 6.6 6.4 6.6 6.7 6.3 6.0 6.0 6.3 6.6 6.5 6.6 7.4 7.2 7.3 7.3 7.3 7.1 7.2
Wind_Speed
17 18 18 18 14 13 14 15 16 14 14 13 13 13 11 9 10 10 9 5 4 3 4 5 6 4 6 9 17 8 4 1 3 14 17 16 17 15 18 19 20 22 23 20 19 16 14
19 17 19 18 15 14 10 13 18 17 15 14 14 14 12 10 11 11 10 9 7 4 3 6 8 7 10 16 12 17 12 9 6 6 13 17 12 16 14 20 21 13 24 22 16 19 17
22 18 20 19 15 15 14 14 14 17 17 15 15 15 13 12 12 13 13 10 9 5 3 5 5 8 13 15 4 10 12 13 13 11 11 16 17 14 13 18 23 23 17 19 23 18 19
24 21 22 20 16 16 15 16 14 15 16 16 16 15 15 14 13 12 12 11 9 8 4 2 4 9 7 10 20 11 7 6 9 13 13 13 16 20 14 14 17 24 19 16 19 22 20
24 24 22 22 16 13 16 17 17 16 18 17 17 16 15 13 11 13 11 10 10 10 6 5 6 10 10 4 15 18 18 13 8 9 14 10 13 15 14 10 10 14 19 26 21 22 18
24 24 24 21 16 14 15 15 17 18 18 19 17 14 13 11 11 13 10 5 9 9 6 3 6 5 12 9 10 14 15 15 14 10 13 16 9 12 14 16 16 19 25 19 23 21 16
25 23 24 22 19 15 16 16 14 16 15 15 15 14 13 10 9 13 4 1 2 2 7 10 10 12 3 13 4 7 12 13 15 14 18 21 12 18 28 27 20 23 18 24 19 22 22
25 24 23 22 20 18 16 14 12 15 15 14 14 13 11 9 9 12 6 4 7 1 4 17 15 17 8 5 6 12 15 14 18 21 19 17 19 27 28 22 27 23 22 23 13 14 11
25 24 23 22 20 20 18 15 14 15 15 14 13 12 10 6 2 5 9 12 5 2 4 6 19 18 19 6 10 13 17 19 20 21 21 23 20 27 27 22 26 26 20 19 14 13 11
27 25 23 22 22 20 19 17 16 15 14 13 13 12 10 11 2 10 9 7 11 4 4 6 8 7 8 8 9 20 20 17 15 21 22 17 20 23 29 28 22 27 19 17 13 12 9
31 27 28 23 20 16 18 19 18 17 16 15 15 14 12 19 1 3 5 11 8 3 6 11 8 8 10 11 4 18 20 20 20 16 5 13 13 24 29 25 21 16 25 16 14 11 2
25 34 32 28 21 16 17 19 19 17 16 17 17 16 12 9 7 1 16 10 2 2 7 8 6 10 10 16 14 2 24 17 14 18 17 21 17 25 23 20 22 9 17 10 12 5 7
27 29 35 22 25 18 18 18 17 17 17 15 19 19 14 8 7 22 10 3 2 6 3 5 4 8 15 13 19 12 19 20 10 7 10 11 17 3 9 14 21 15 16 6 5 5 7
28 27 34 32 25 23 16 18 16 14 15 14 13 17 13 7 14 19 5 2 8 3 6 3 4 6 8 10 18 18 13 16 22 10 6 7 7 9 9 11 9 18 16 7 7 9 13
21 21 26 31 33 25 17 16 15 13 11 13 9 3 3 7 14 9 3 5 5 4 6 6 8 4 5 10 11 18 18 18 20 17 4 6 6 2 16 13 16 9 19 2 4 5 10
24 21 20 24 34 23 20 16 15 13 12 14 4 3 4 15 16 9 4 10 5 5 6 8 11 12 12 18 12 16 10 13 18 18 16 5 4 1 5 12 3 6 11 6 3 7 6
24 28 20 25 31 19 18 17 15 12 15 18 3 3 5 17 8 4 6 7 6 8 11 14 15 13 14 17 15 16 7 8 22 17 17 9 1 3 11 5 11 3 7 5 3 3 4
31 26 22 21 25 32 17 16 15 14 16 11 3 3 9 11 5 3 8 5 5 6 17 16 9 13 13 18 17 15 15 10 17 12 8 9 5 2 8 4 14 12 9 12 6 5 4
30 33 19 19 24 25 17 18 16 19 21 4 3 3 7 9 5 7 9 6 8 7 11 13 11 14 14 16 11 11 8 15 13 20 8 13 3 3 5 8 3 2 11 17 11 3 11
32 32 23 18 23 25 15 18 16 22 21 3 2 4 3 4 6 5 11 7 7 13 14 13 9 13 12 14 15 15 8 10 12 20 17 4 8 6 4 7 12 11 15 17 15 9 10
33 31 30 21 24 26 13 17 17 20 23 4 3 4 6 6 8 16 6 3 8 5 14 19 8 18 17 14 18 7 17 10 12 15 12 4 6 6 2 4 14 14 19 18 18 17 11
36 31 28 20 23 26 23 17 17 18 18 3 2 4 3 2 10 15 14 9 15 12 9 10 13 19 18 12 14 12 15 12 9 13 16 13 4 4 4 2 6 13 16 20 22 22 21
35 32 27 24 29 24 29 19 19 19 13 2 1 1 3 4 8 10 9 12 11 16 6 9 12 8 17 14 12 5 13 12 5 14 16 9 6 3 2 6 5 9 18 19 20 21 20
34 32 27 25 28 28 29 19 19 19 17 1 1 2 4 9 10 10 3 8 12 12 9 7 5 2 7 6 3 2 8 12 3 11 15 13 9 3 2 5 6 2 3 17 21 19 20
34 32 27 24 24 25 22 13 19 20 23 3 2 2 3 8 10 8 8 5 1 2 14 1 5 4 8 11 8 6 2 4 4 8 15 9 7 2 3 4 9 8 4 6 16 17 19
33 32 28 24 25 23 23 16 18 19 21 4 2 0 3 4 1 2 7 4 3 2 3 2 4 4 4 2 3 5 4 4 5 2 8 6 8 4 1 3 4 4 2 0 6 10 4
32 32 29 23 24 26 22 25 17 17 16 5 2 5 3 5 5 3 4 3 3 2 4 4 6 4 4 1 6 6 3 9 7 9 5 3 2 4 3 4 7 5 7 5 6 2 2
31 32 28 25 22 24 21 24 17 16 16 6 2 5 5 4 4 2 2 3 2 2 4 4 5 2 2 3 3 2 3 5 6 14 9 8 7 4 4 5 8 8 5 4 3 5 7
30 31 27 26 23 23 22 23 16 16 17 11 2 3 5 4 3 2 2 1 2 2 2 5 2 5 4 2 2 2 2 3 5 7 5 8 8 7 9 5 4 5 3 3 5 10 9
Wind_Direction
287 291 294 295 270 275 248 243 239 244 253 259 266 271 272 274 276 274 268 251 237 262 298 286 245 219 194 221 234 149 180 119 201 204 220 219 220 220 237 229 231 237 236 239 245 247 242
285 285 288 290 273 274 245 258 242 236 244 252 258 266 267 264 268 264 265 261 254 238 273 293 260 202 239 245 235 236 218 254 284 216 208 236 229 226 251 247 226 230 237 244 228 238 242
286 279 281 284 281 261 257 253 262 234 236 246 251 255 254 254 261 264 257 262 263 260 266 301 279 211 238 237 206 240 246 257 262 252 240 218 238 239 223 257 248 229 237 231 243 237 246
286 278 277 279 274 260 249 250 246 242 235 242 247 248 256 247 256 256 259 263 275 285 275 307 198 225 244 246 250 219 212 224 242 248 248 264 230 245 260 294 283 230 241 242 227 229 237
278 276 274 277 265 266 253 248 242 243 243 240 243 246 249 252 251 235 246 261 271 283 241 165 200 224 251 131 224 228 229 235 231 254 233 239 243 225 241 238 253 229 226 220 235 218 220
273 273 276 270 261 259 260 256 249 239 242 245 236 240 243 252 242 220 231 292 311 296 197 209 271 219 235 225 225 222 221 230 233 237 221 213 209 211 219 220 210 213 219 215 223 223 212
267 266 274 268 264 259 252 248 255 243 242 239 231 234 237 243 247 219 158 283 196 236 189 190 187 215 0 201 218 206 203 212 224 230 221 208 207 215 211 222 231 215 208 219 214 223 221
261 262 267 266 262 255 253 248 243 241 240 244 230 231 233 236 249 224 174 234 228 18 226 222 239 226 264 257 229 224 193 199 204 219 217 222 221 224 219 227 225 236 226 215 219 169 204
257 258 260 262 255 252 244 244 232 238 238 237 231 227 228 232 174 193 222 233 148 89 255 226 221 234 219 231 240 209 192 209 206 221 222 221 228 222 222 212 222 230 223 227 197 191 216
263 257 254 257 253 250 241 237 232 230 230 232 226 215 212 137 169 239 243 229 151 116 265 199 211 215 186 188 238 243 197 214 224 224 224 235 251 245 215 217 226 219 220 226 174 197 219
336 322 265 249 243 247 245 240 232 227 222 220 217 211 207 180 110 208 144 123 113 66 266 125 153 161 185 183 177 204 210 215 225 205 147 218 239 232 210 221 228 215 198 191 193 201 281
313 333 319 259 239 240 243 243 233 231 229 220 214 206 190 194 243 149 135 129 117 183 247 168 137 184 182 198 235 215 195 212 230 241 214 231 274 215 206 229 225 220 175 155 190 182 223
306 310 311 289 250 235 242 241 228 230 222 229 217 197 184 191 218 142 144 124 167 236 91 185 185 200 205 193 216 195 191 198 206 192 223 198 250 308 229 228 226 166 182 163 155 183 218
318 302 308 322 281 245 239 234 225 230 229 221 221 188 201 210 134 147 156 144 232 241 189 124 169 176 198 184 211 196 200 211 218 207 217 183 199 201 201 245 169 169 183 166 163 183 195
310 304 297 302 308 257 242 229 222 222 227 195 195 164 162 199 153 159 151 224 236 202 161 177 156 169 183 214 211 213 218 223 211 187 278 161 254 239 254 195 158 190 218 60 118 43 157
322 311 309 313 316 276 242 215 215 213 190 164 134 155 208 183 168 169 206 236 237 179 148 195 196 203 186 196 204 193 215 213 214 201 216 307 272 307 226 127 9 216 175 180 226 155 181
324 327 310 313 315 297 245 202 206 204 173 161 135 191 141 145 139 174 217 226 243 197 178 199 221 197 213 183 206 191 225 230 193 192 189 259 196 280 241 142 152 174 172 235 273 356 211
337 314 309 300 315 336 229 199 195 186 163 148 160 219 143 146 167 200 225 197 230 242 196 235 267 216 216 184 196 208 224 206 198 177 200 209 171 214 77 70 166 166 204 218 208 161 266
337 332 311 318 316 305 234 193 190 170 156 150 201 162 166 166 200 211 228 227 229 243 204 210 222 215 209 195 206 206 236 173 199 192 214 183 176 114 98 89 61 188 233 205 238 321 219
336 330 337 325 316 306 244 186 185 173 178 123 221 193 134 211 253 235 219 241 220 221 227 214 226 205 210 201 223 194 230 200 195 207 216 300 263 239 164 178 147 190 206 204 212 224 229
336 334 332 325 325 325 266 183 183 181 185 146 223 224 170 187 228 233 231 257 203 247 218 209 245 204 194 201 209 210 198 169 194 217 214 274 286 230 245 52 173 186 191 209 222 232 232
336 336 334 329 315 318 323 181 185 183 174 174 200 219 164 287 221 221 226 221 234 221 224 203 229 204 197 210 200 202 199 195 181 209 214 222 301 296 199 262 225 210 208 208 219 226 233
331 333 336 336 333 320 317 194 185 183 165 177 235 236 298 248 222 223 221 217 239 212 249 189 208 228 206 220 197 225 188 198 193 194 193 199 244 238 192 183 202 249 227 215 225 231 232
330 330 335 345 331 320 330 190 186 187 186 185 206 256 215 256 247 235 217 208 205 204 224 202 162 174 240 110 111 90 104 26 262 211 187 192 230 274 133 176 217 14 357 229 221 233 231
330 328 333 338 327 316 318 251 189 192 191 184 173 240 227 258 270 261 211 186 97 280 182 166 184 237 230 156 172 123 72 36 28 13 197 171 217 178 203 219 311 276 212 190 203 238 235
328 328 331 337 328 325 320 312 190 195 191 180 182 201 266 300 274 342 179 187 154 110 107 189 203 206 168 202 183 162 168 142 161 113 2 165 207 252 203 222 231 57 126 118 179 262 238
326 326 331 332 328 325 318 329 192 197 190 170 184 178 258 240 276 267 229 199 144 159 136 145 161 134 42 160 204 168 142 153 162 159 148 129 201 166 143 262 282 93 137 152 200 36 81
324 326 330 332 323 322 320 315 201 193 185 169 139 190 224 240 281 282 287 159 148 211 172 160 140 178 152 188 172 150 164 178 166 162 172 163 150 164 161 225 254 132 128 210 80 106 133
324 325 330 328 327 321 313 308 199 194 179 180 158 181 212 256 340 304 302 301 186 3 123 172 340 149 139 157 228 128 144 174 154 179 187 201 218 172 197 204 102 158 24 39 154 140 133